,,,PA_Meas_PMT16A,,PR_Meas_QMR101_102,,RH_Meas_QMH101,,SR_Meas_QMS101,,TA_Meas_QMH101,,GenWind,,GenWind,
date,time,status,PA,status,PR,status,RH,status,SR,status,TA,status,DirAvg,status,SpdAvg,
2009-05-18, 00:00:05,VALID,1003.26,VALID,0,VALID,92.9732,VALID,0.100563,VALID,24.599,VALID,311,VALID,0,
2009-05-18, 00:01:05,VALID,1003.28,VALID,0,VALID,93.0342,VALID,0.100563,VALID,24.5582,VALID,311,VALID,0,
2009-05-18, 00:02:05,VALID,1003.28,VALID,0,VALID,93.1105,VALID,0.100563,VALID,24.562,VALID,311,VALID,0,
2009-05-18, 00:03:05,VALID,1003.25,VALID,0,VALID,93.1868,VALID,0,VALID,24.4998,VALID,311,VALID,0,
2009-05-18, 00:04:05,VALID,1003.26,VALID,0,VALID,93.2936,VALID,0,VALID,24.5212,VALID,311,VALID,0,
2009-05-18, 00:05:05,VALID,1003.26,VALID,0,VALID,93.4614,VALID,0.100563,VALID,24.5193,VALID,312,VALID,0,
2009-05-18, 00:06:05,VALID,1003.23,VALID,0,VALID,93.5606,VALID,0.100563,VALID,24.5406,VALID,312,VALID,0,
2009-05-18, 00:07:05,VALID,1003.26,VALID,0,VALID,93.6826,VALID,0,VALID,24.599,VALID,317,VALID,0.481641,
2009-05-18, 00:08:05,VALID,1003.25,VALID,0,VALID,93.7208,VALID,0.100563,VALID,24.599,VALID,332,VALID,0.384766,
2009-05-18, 00:09:05,VALID,1003.19,VALID,0,VALID,93.7742,VALID,0,VALID,24.5972,VALID,333,VALID,0.203516,
2009-05-18, 00:10:05,VALID,1003.2,VALID,0,VALID,93.7895,VALID,0.100563,VALID,24.6361,VALID,333,VALID,0.000390625,
2009-05-18, 00:11:05,VALID,1003.15,VALID,0,VALID,93.7284,VALID,0,VALID,24.6769,VALID,333,VALID,0.00195313,
2009-05-18, 00:12:05,VALID,1003.17,VALID,0,VALID,93.7208,VALID,0.100563,VALID,24.6556,VALID,333,VALID,0.123047,
2009-05-18, 00:13:05,VALID,1003.14,VALID,0,VALID,93.7055,VALID,0.100563,VALID,24.6945,VALID,333,VALID,0,
2009-05-18, 00:14:05,VALID,1003.15,VALID,0,VALID,93.7055,VALID,0,VALID,24.714,VALID,333,VALID,0.00195313,
2009-05-18, 00:15:05,VALID,1003.16,VALID,0,VALID,93.7284,VALID,0,VALID,24.7335,VALID,333,VALID,0.00742187,
2009-05-18, 00:16:05,VALID,1003.17,VALID,0,VALID,93.7361,VALID,0,VALID,24.7937,VALID,333,VALID,0.156641,
2009-05-18, 00:17:05,VALID,1003.17,VALID,0,VALID,93.7284,VALID,0.100563,VALID,24.7919,VALID,333,VALID,0,
2009-05-18, 00:18:05,VALID,1003.2,VALID,0,VALID,93.7132,VALID,0,VALID,24.8308,VALID,333,VALID,0.05,
2009-05-18, 00:19:05,VALID,1003.21,VALID,0,VALID,93.614,VALID,0,VALID,24.8308,VALID,337,VALID,0.228906,
2009-05-18, 00:20:05,VALID,1003.23,VALID,0,VALID,93.614,VALID,0.100563,VALID,24.8892,VALID,339,VALID,0.269141,
2009-05-18, 00:21:05,VALID,1003.21,VALID,0,VALID,93.5682,VALID,0,VALID,24.9282,VALID,347,VALID,0.367578,
2009-05-18, 00:22:05,VALID,1003.25,VALID,0,VALID,93.4843,VALID,0,VALID,24.9476,VALID,348,VALID,0.346094,
2009-05-18, 00:23:05,VALID,1003.25,VALID,0,VALID,93.347,VALID,0,VALID,25.0079,VALID,348,VALID,0.403516,
2009-05-18, 00:24:05,VALID,1003.28,VALID,0,VALID,93.1715,VALID,0.100563,VALID,24.9866,VALID,348,VALID,0.417188,
2009-05-18, 00:25:05,VALID,1003.26,VALID,0,VALID,92.9961,VALID,0,VALID,25.006,VALID,348,VALID,0.307422,
2009-05-18, 00:26:05,VALID,1003.26,VALID,0,VALID,92.8664,VALID,0,VALID,25.0255,VALID,348,VALID,0.197656,
2009-05-18, 00:27:05,VALID,1003.26,VALID,0,VALID,92.7367,VALID,0,VALID,25.0469,VALID,348,VALID,0.186328,
2009-05-18, 00:28:05,VALID,1003.29,VALID,0,VALID,92.6375,VALID,0.100563,VALID,25.0469,VALID,348,VALID,0,
2009-05-18, 00:29:05,VALID,1003.29,VALID,0,VALID,92.5231,VALID,0,VALID,25.0255,VALID,348,VALID,0,
2009-05-18, 00:30:05,VALID,1003.3,VALID,0,VALID,92.462,VALID,0,VALID,25.0255,VALID,348,VALID,0,
2009-05-18, 00:31:05,VALID,1003.29,VALID,0,VALID,92.5154,VALID,0,VALID,25.006,VALID,348,VALID,0.1625,
2009-05-18, 00:32:05,VALID,1003.24,VALID,0,VALID,92.546,VALID,0,VALID,25.0255,VALID,348,VALID,0,
2009-05-18, 00:33:05,VALID,1003.26,VALID,0,VALID,92.5688,VALID,0,VALID,25.045,VALID,348,VALID,0.111719,
2009-05-18, 00:34:05,VALID,1003.23,VALID,0,VALID,92.5078,VALID,0,VALID,25.0255,VALID,348,VALID,0,
2009-05-18, 00:35:05,VALID,1003.2,VALID,0,VALID,92.6604,VALID,0.100563,VALID,25.0663,VALID,290,VALID,0.680859,
2009-05-18, 00:36:05,VALID,1003.18,VALID,0,VALID,92.5612,VALID,0.100563,VALID,25.1053,VALID,290,VALID,0.280078,
2009-05-18, 00:37:05,VALID,1003.12,VALID,0,VALID,92.3934,VALID,0,VALID,25.0839,VALID,291,VALID,0.208594,
2009-05-18, 00:38:05,VALID,1003.16,VALID,0,VALID,92.2942,VALID,0,VALID,25.1034,VALID,315,VALID,0.243359,
2009-05-18, 00:39:05,VALID,1003.13,VALID,0,VALID,92.1569,VALID,0.100563,VALID,25.1229,VALID,315,VALID,0,
2009-05-18, 00:40:05,VALID,1003.15,VALID,0,VALID,91.9967,VALID,0.100563,VALID,25.1229,VALID,315,VALID,0.238281,
2009-05-18, 00:41:05,VALID,1003.15,VALID,0,VALID,91.661,VALID,0,VALID,25.0839,VALID,315,VALID,0.457422,
2009-05-18, 00:42:05,VALID,1003.13,VALID,0,VALID,91.3482,VALID,0,VALID,25.0274,VALID,347,VALID,0.549219,
2009-05-18, 00:43:05,VALID,1003.13,VALID,0,VALID,91.3558,VALID,0,VALID,24.8892,VALID,360,VALID,0.502344,
2009-05-18, 00:44:05,VALID,1003.11,VALID,0,VALID,91.4169,VALID,0.100563,VALID,24.8113,VALID,360,VALID,0.441797,
2009-05-18, 00:45:05,VALID,1003.09,VALID,0,VALID,91.5923,VALID,0.100563,VALID,24.7335,VALID,360,VALID,0.397266,
2009-05-18, 00:46:05,VALID,1003.07,VALID,0,VALID,91.928,VALID,0.100563,VALID,24.7159,VALID,360,VALID,0.358984,
2009-05-18, 00:47:04,VALID,1003.08,VALID,0,VALID,92.2713,VALID,0.100563,VALID,24.6964,VALID,360,VALID,0.296094,
2009-05-18, 00:48:04,VALID,1003.07,VALID,0,VALID,92.3095,VALID,0.100563,VALID,24.6361,VALID,360,VALID,0.232031,
2009-05-18, 00:49:04,VALID,1003.08,VALID,0,VALID,92.3552,VALID,0,VALID,24.599,VALID,360,VALID,0.168359,
2009-05-18, 00:50:04,VALID,1003.08,VALID,0,VALID,92.4391,VALID,0.100563,VALID,24.5388,VALID,360,VALID,0,
2009-05-18, 00:51:04,VALID,1003.1,VALID,0,VALID,92.5688,VALID,0.100563,VALID,24.5193,VALID,360,VALID,0,
2009-05-18, 00:52:04,VALID,1003.06,VALID,0,VALID,92.6909,VALID,0.100563,VALID,24.4998,VALID,360,VALID,0,
2009-05-18, 00:53:04,VALID,1003.04,VALID,0,VALID,92.8587,VALID,0.100563,VALID,24.4804,VALID,360,VALID,0,
2009-05-18, 00:54:04,VALID,1003.03,VALID,0,VALID,92.9884,VALID,0,VALID,24.5212,VALID,360,VALID,0,
2009-05-18, 00:55:04,VALID,1003.03,VALID,0,VALID,93.141,VALID,0.100563,VALID,24.4998,VALID,360,VALID,0,
2009-05-18, 00:56:04,VALID,1003.02,VALID,0,VALID,93.2249,VALID,0.100563,VALID,24.5406,VALID,360,VALID,0,
2009-05-18, 00:57:04,VALID,1003.06,VALID,0,VALID,93.2631,VALID,0.100563,VALID,24.5601,VALID,360,VALID,0,
2009-05-18, 00:58:04,VALID,1003.06,VALID,0,VALID,93.3088,VALID,0,VALID,24.5193,VALID,360,VALID,0,
2009-05-18, 00:59:04,VALID,1003.1,VALID,0,VALID,93.3394,VALID,0.100563,VALID,24.5193,VALID,360,VALID,0,
2009-05-18, 01:00:04,VALID,1003.06,VALID,0,VALID,93.3394,VALID,0,VALID,24.5212,VALID,360,VALID,0,
2009-05-18, 01:01:04,VALID,1003.02,VALID,0,VALID,93.3775,VALID,0,VALID,24.5406,VALID,360,VALID,0,
2009-05-18, 01:02:04,VALID,1003.02,VALID,0,VALID,93.3851,VALID,0.100563,VALID,24.4998,VALID,360,VALID,0,
2009-05-18, 01:03:04,VALID,1003.01,VALID,0,VALID,93.408,VALID,0.100563,VALID,24.4998,VALID,360,VALID,0,
2009-05-18, 01:04:04,VALID,1002.99,VALID,0,VALID,93.3928,VALID,0,VALID,24.4804,VALID,360,VALID,0,
2009-05-18, 01:05:04,VALID,1003.03,VALID,0,VALID,93.4156,VALID,0,VALID,24.4609,VALID,360,VALID,0,
2009-05-18, 01:06:04,VALID,1003.04,VALID,0,VALID,93.408,VALID,0.100563,VALID,24.4414,VALID,360,VALID,0,
2009-05-18, 01:07:04,VALID,1003,VALID,0,VALID,93.469,VALID,0,VALID,24.422,VALID,360,VALID,0,
2009-05-18, 01:08:04,VALID,1003,VALID,0,VALID,93.3775,VALID,0,VALID,24.383,VALID,360,VALID,0,
2009-05-18, 01:09:04,VALID,1002.94,VALID,0,VALID,93.4996,VALID,0,VALID,24.3441,VALID,360,VALID,0,
2009-05-18, 01:10:04,VALID,1002.96,VALID,0,VALID,93.6598,VALID,0.100563,VALID,24.383,VALID,360,VALID,0,
2009-05-18, 01:11:04,VALID,1002.93,VALID,0,VALID,93.7742,VALID,0.100563,VALID,24.4238,VALID,360,VALID,0,
2009-05-18, 01:12:04,VALID,1002.93,VALID,0,VALID,93.9039,VALID,0,VALID,24.4433,VALID,360,VALID,0,
2009-05-18, 01:13:04,VALID,1002.95,VALID,0,VALID,93.8963,VALID,0,VALID,24.4841,VALID,360,VALID,0,
2009-05-18, 01:14:04,VALID,1002.92,VALID,0,VALID,93.8429,VALID,0,VALID,24.4841,VALID,360,VALID,0,
2009-05-18, 01:15:04,VALID,1002.89,VALID,0,VALID,93.8734,VALID,0,VALID,24.4628,VALID,360,VALID,0,
2009-05-18, 01:16:04,VALID,1002.82,VALID,0,VALID,93.9268,VALID,0,VALID,24.4841,VALID,360,VALID,0.389844,
2009-05-18, 01:17:04,VALID,1002.79,VALID,0,VALID,93.9878,VALID,0,VALID,24.523,VALID,359,VALID,0.536719,
2009-05-18, 01:18:04,VALID,1002.79,VALID,0,VALID,94.0946,VALID,0,VALID,24.5212,VALID,359,VALID,0.406641,
2009-05-18, 01:19:04,VALID,1002.78,VALID,0,VALID,94.1022,VALID,0,VALID,24.5601,VALID,359,VALID,0.194922,
2009-05-18, 01:20:04,VALID,1002.78,VALID,0,VALID,94.1022,VALID,0,VALID,24.5796,VALID,359,VALID,0.374609,
2009-05-18, 01:21:04,VALID,1002.78,VALID,0,VALID,94.0107,VALID,0,VALID,24.5796,VALID,359,VALID,0.406641,
2009-05-18, 01:22:04,VALID,1002.77,VALID,0,VALID,93.9268,VALID,0,VALID,24.5814,VALID,359,VALID,0.319141,
2009-05-18, 01:23:04,VALID,1002.76,VALID,0,VALID,93.8886,VALID,0,VALID,24.5601,VALID,359,VALID,0.391406,
2009-05-18, 01:24:04,VALID,1002.77,VALID,0,VALID,93.8505,VALID,0,VALID,24.5406,VALID,359,VALID,0.216406,
2009-05-18, 01:25:04,VALID,1002.74,VALID,0,VALID,93.9802,VALID,0,VALID,24.5601,VALID,359,VALID,0.378516,
2009-05-18, 01:26:04,VALID,1002.78,VALID,0,VALID,93.9039,VALID,0,VALID,24.5193,VALID,359,VALID,0.518359,
2009-05-18, 01:27:04,VALID,1002.76,VALID,0,VALID,93.8581,VALID,0,VALID,24.5193,VALID,359,VALID,0.424219,
2009-05-18, 01:28:04,VALID,1002.77,VALID,0,VALID,93.8886,VALID,0.100563,VALID,24.5193,VALID,359,VALID,0.543359,
2009-05-18, 01:29:04,VALID,1002.77,VALID,0,VALID,93.8581,VALID,0.100563,VALID,24.5193,VALID,359,VALID,0.549219,
2009-05-18, 01:30:04,VALID,1002.76,VALID,0,VALID,93.8429,VALID,0,VALID,24.4804,VALID,359,VALID,0.640234,
2009-05-18, 01:31:04,VALID,1002.76,VALID,0,VALID,93.7895,VALID,0,VALID,24.4609,VALID,359,VALID,0.561328,
2009-05-18, 01:32:04,VALID,1002.74,VALID,0,VALID,93.881,VALID,0.100563,VALID,24.4609,VALID,359,VALID,0.673437,
2009-05-18, 01:33:04,VALID,1002.75,VALID,0,VALID,93.9878,VALID,0.100563,VALID,24.4804,VALID,359,VALID,0.486719,
2009-05-18, 01:34:04,VALID,1002.76,VALID,0,VALID,94.0183,VALID,0,VALID,24.4609,VALID,359,VALID,0.487891,
2009-05-18, 01:35:04,VALID,1002.74,VALID,0,VALID,94.0412,VALID,0.100563,VALID,24.4804,VALID,359,VALID,0.367969,
2009-05-18, 01:36:04,VALID,1002.73,VALID,0,VALID,94.087,VALID,0,VALID,24.4998,VALID,338,VALID,0.411328,
2009-05-18, 01:37:04,VALID,1002.7,VALID,0,VALID,94.087,VALID,0.100563,VALID,24.5388,VALID,338,VALID,0.302344,
2009-05-18, 01:38:04,VALID,1002.67,VALID,0,VALID,94.0336,VALID,0,VALID,24.5796,VALID,338,VALID,0,
2009-05-18, 01:39:04,VALID,1002.65,VALID,0,VALID,94.0641,VALID,0.100563,VALID,24.5972,VALID,277,VALID,0.653516,
2009-05-18, 01:40:04,VALID,1002.64,VALID,0,VALID,94.1862,VALID,0,VALID,24.6556,VALID,291,VALID,0.887109,
2009-05-18, 01:41:04,VALID,1002.64,VALID,0,VALID,94.0412,VALID,0,VALID,24.7335,VALID,290,VALID,0.271094,
2009-05-18, 01:42:04,VALID,1002.62,VALID,0,VALID,93.8123,VALID,0,VALID,24.8132,VALID,293,VALID,0.429297,
2009-05-18, 01:43:04,VALID,1002.62,VALID,0,VALID,93.614,VALID,0,VALID,24.8522,VALID,294,VALID,0,
2009-05-18, 01:44:04,VALID,1002.63,VALID,0,VALID,93.408,VALID,0,VALID,24.8911,VALID,323,VALID,0.0300781,
2009-05-18, 01:45:04,VALID,1002.63,VALID,0,VALID,93.2707,VALID,0,VALID,24.93,VALID,350,VALID,0.5625,
2009-05-18, 01:46:04,VALID,1002.59,VALID,0,VALID,93.0723,VALID,0,VALID,24.9495,VALID,336,VALID,0.176563,
2009-05-18, 01:47:04,VALID,1002.59,VALID,0,VALID,92.8282,VALID,0,VALID,24.9885,VALID,355,VALID,0.562109,
2009-05-18, 01:48:04,VALID,1002.56,VALID,0,VALID,92.5765,VALID,0,VALID,25.0079,VALID,341,VALID,0.885938,
2009-05-18, 01:49:04,VALID,1002.57,VALID,0,VALID,92.3705,VALID,0,VALID,25.0469,VALID,359,VALID,0.355469,
2009-05-18, 01:50:04,VALID,1002.56,VALID,0,VALID,92.1416,VALID,0,VALID,25.0877,VALID,316,VALID,0.546484,
2009-05-18, 01:51:04,VALID,1002.54,VALID,0,VALID,91.9433,VALID,0,VALID,25.0858,VALID,340,VALID,0.174609,
2009-05-18, 01:52:04,VALID,1002.58,VALID,0,VALID,91.7297,VALID,0,VALID,25.0839,VALID,352,VALID,0.8625,
2009-05-18, 01:53:04,VALID,1002.56,VALID,0,VALID,91.5618,VALID,0,VALID,25.1248,VALID,286,VALID,0.457031,
2009-05-18, 01:54:04,VALID,1002.57,VALID,0,VALID,91.3864,VALID,0,VALID,25.1442,VALID,347,VALID,0.525,
2009-05-18, 01:55:04,VALID,1002.58,VALID,0,VALID,91.0965,VALID,0,VALID,25.1637,VALID,336,VALID,0.55625,
2009-05-18, 01:56:04,VALID,1002.53,VALID,0,VALID,90.8676,VALID,0,VALID,25.1832,VALID,338,VALID,0.858984,
2009-05-18, 01:57:04,VALID,1002.53,VALID,0,VALID,90.4556,VALID,0,VALID,25.2027,VALID,1,VALID,0.739453,
2009-05-18, 01:58:04,VALID,1002.51,VALID,0,VALID,90.0894,VALID,0,VALID,25.2435,VALID,350,VALID,0.718359,
2009-05-18, 01:59:04,VALID,1002.5,VALID,0,VALID,89.8911,VALID,0,VALID,25.2611,VALID,335,VALID,0.272656,
2009-05-18, 02:00:04,VALID,1002.53,VALID,0,VALID,89.6699,VALID,0,VALID,25.2806,VALID,355,VALID,0.265234,
2009-05-18, 02:01:04,VALID,1002.54,VALID,0,VALID,89.4563,VALID,0,VALID,25.2825,VALID,349,VALID,0.724219,
2009-05-18, 02:02:04,VALID,1002.55,VALID,0,VALID,89.2808,VALID,0,VALID,25.3,VALID,360,VALID,0.407813,
2009-05-18, 02:03:04,VALID,1002.55,VALID,0,VALID,89.029,VALID,0,VALID,25.3,VALID,328,VALID,0.607813,
2009-05-18, 02:04:04,VALID,1002.53,VALID,0,VALID,88.8383,VALID,0,VALID,25.3195,VALID,351,VALID,0.558984,
2009-05-18, 02:05:04,VALID,1002.51,VALID,0,VALID,88.7315,VALID,0,VALID,25.2981,VALID,359,VALID,0.552344,
2009-05-18, 02:06:04,VALID,1002.46,VALID,0,VALID,88.6934,VALID,0,VALID,25.3195,VALID,359,VALID,0.576953,
2009-05-18, 02:07:04,VALID,1002.47,VALID,0,VALID,88.6552,VALID,0,VALID,25.3195,VALID,354,VALID,0.573828,
2009-05-18, 02:08:04,VALID,1002.46,VALID,0,VALID,88.64,VALID,0,VALID,25.3195,VALID,354,VALID,0.103516,
2009-05-18, 02:09:04,VALID,1002.46,VALID,0,VALID,88.6094,VALID,0,VALID,25.3,VALID,355,VALID,0.111328,
2009-05-18, 02:10:04,VALID,1002.46,VALID,0,VALID,88.701,VALID,0,VALID,25.3,VALID,357,VALID,0.405859,
2009-05-18, 02:11:04,VALID,1002.45,VALID,0,VALID,88.7239,VALID,0,VALID,25.2806,VALID,358,VALID,0.255859,
2009-05-18, 02:12:04,VALID,1002.46,VALID,0,VALID,88.7544,VALID,0,VALID,25.3019,VALID,348,VALID,0.432813,
2009-05-18, 02:13:04,VALID,1002.47,VALID,0,VALID,88.7544,VALID,0,VALID,25.2806,VALID,319,VALID,0.0195313,
2009-05-18, 02:14:04,VALID,1002.45,VALID,0,VALID,88.8078,VALID,0,VALID,25.2611,VALID,318,VALID,0.2375,
2009-05-18, 02:15:04,VALID,1002.45,VALID,0,VALID,88.8841,VALID,0,VALID,25.2416,VALID,1,VALID,0.608984,
2009-05-18, 02:16:04,VALID,1002.45,VALID,0,VALID,88.9299,VALID,0,VALID,25.2202,VALID,353,VALID,0.616016,
2009-05-18, 02:17:04,VALID,1002.45,VALID,0,VALID,88.9299,VALID,0,VALID,25.2416,VALID,357,VALID,0.6125,
2009-05-18, 02:18:04,VALID,1002.46,VALID,0,VALID,88.9527,VALID,0,VALID,25.2611,VALID,332,VALID,0.478125,
2009-05-18, 02:19:04,VALID,1002.46,VALID,0,VALID,88.9527,VALID,0,VALID,25.2416,VALID,358,VALID,0.743359,
2009-05-18, 02:20:04,VALID,1002.46,VALID,0,VALID,88.9451,VALID,0,VALID,25.2416,VALID,313,VALID,0.639063,
2009-05-18, 02:21:04,VALID,1002.49,VALID,0,VALID,88.8765,VALID,0,VALID,25.2806,VALID,351,VALID,0.480859,
2009-05-18, 02:22:04,VALID,1002.49,VALID,0,VALID,88.7697,VALID,0,VALID,25.2786,VALID,340,VALID,0.848828,
2009-05-18, 02:23:04,VALID,1002.51,VALID,0,VALID,88.5637,VALID,0,VALID,25.3604,VALID,332,VALID,0.520312,
2009-05-18, 02:24:04,VALID,1002.52,VALID,0,VALID,88.4874,VALID,0,VALID,25.339,VALID,351,VALID,0.553906,
2009-05-18, 02:25:04,VALID,1002.53,VALID,0,VALID,88.4264,VALID,0,VALID,25.339,VALID,347,VALID,0.991016,
2009-05-18, 02:26:04,VALID,1002.53,VALID,0,VALID,88.3424,VALID,0,VALID,25.337,VALID,351,VALID,0.836328,
2009-05-18, 02:27:04,VALID,1002.53,VALID,0,VALID,88.2585,VALID,0,VALID,25.3584,VALID,317,VALID,0.385156,
2009-05-18, 02:28:04,VALID,1002.53,VALID,0,VALID,88.2433,VALID,0,VALID,25.3779,VALID,347,VALID,0.807813,
2009-05-18, 02:29:04,VALID,1002.55,VALID,0,VALID,88.3195,VALID,0,VALID,25.3779,VALID,3,VALID,0.463281,
2009-05-18, 02:30:04,VALID,1002.55,VALID,0,VALID,88.3195,VALID,0,VALID,25.339,VALID,344,VALID,0.900781,
2009-05-18, 02:31:04,VALID,1002.57,VALID,0,VALID,88.2738,VALID,0,VALID,25.3779,VALID,337,VALID,0.829297,
2009-05-18, 02:32:04,VALID,1002.59,VALID,0,VALID,88.0831,VALID,0,VALID,25.3974,VALID,349,VALID,0.857422,
2009-05-18, 02:33:04,VALID,1002.6,VALID,0,VALID,87.9534,VALID,0,VALID,25.3974,VALID,344,VALID,0.683594,
2009-05-18, 02:34:04,VALID,1002.6,VALID,0,VALID,87.9228,VALID,0,VALID,25.4383,VALID,345,VALID,0.583594,
2009-05-18, 02:35:04,VALID,1002.58,VALID,0,VALID,87.9534,VALID,0,VALID,25.4169,VALID,353,VALID,0.4875,
2009-05-18, 02:36:04,VALID,1002.61,VALID,0,VALID,87.9762,VALID,0,VALID,25.3955,VALID,350,VALID,0.701172,
2009-05-18, 02:37:04,VALID,1002.6,VALID,0,VALID,88.022,VALID,0,VALID,25.4188,VALID,345,VALID,0.557813,
2009-05-18, 02:38:04,VALID,1002.65,VALID,0,VALID,88.1212,VALID,0,VALID,25.3779,VALID,346,VALID,0.638281,
2009-05-18, 02:39:04,VALID,1002.63,VALID,0,VALID,88.2127,VALID,0,VALID,25.3779,VALID,344,VALID,0.497656,
2009-05-18, 02:40:04,VALID,1002.64,VALID,0,VALID,88.3119,VALID,0,VALID,25.3584,VALID,346,VALID,0.585938,
2009-05-18, 02:41:04,VALID,1002.63,VALID,0,VALID,88.3958,VALID,0,VALID,25.3604,VALID,346,VALID,0.814453,
2009-05-18, 02:42:04,VALID,1002.59,VALID,0,VALID,88.4416,VALID,0,VALID,25.3195,VALID,352,VALID,0.308594,
2009-05-18, 02:43:04,VALID,1002.61,VALID,0,VALID,88.4874,VALID,0,VALID,25.3176,VALID,360,VALID,0.710547,
2009-05-18, 02:44:04,VALID,1002.63,VALID,0,VALID,88.5026,VALID,0,VALID,25.3409,VALID,352,VALID,0.670313,
2009-05-18, 02:45:04,VALID,1002.63,VALID,0,VALID,88.5103,VALID,0,VALID,25.339,VALID,352,VALID,1.0457,
2009-05-18, 02:46:04,VALID,1002.62,VALID,0,VALID,88.3806,VALID,0,VALID,25.3584,VALID,352,VALID,0.737109,
2009-05-18, 02:47:04,VALID,1002.64,VALID,0,VALID,88.3424,VALID,0,VALID,25.339,VALID,354,VALID,0.43125,
2009-05-18, 02:48:04,VALID,1002.63,VALID,0,VALID,88.3424,VALID,0,VALID,25.339,VALID,347,VALID,0.714844,
2009-05-18, 02:49:04,VALID,1002.64,VALID,0,VALID,88.3348,VALID,0,VALID,25.339,VALID,346,VALID,0.840234,
2009-05-18, 02:50:04,VALID,1002.65,VALID,0,VALID,88.2814,VALID,0,VALID,25.3604,VALID,338,VALID,1.0125,
2009-05-18, 02:51:04,VALID,1002.61,VALID,0,VALID,88.1746,VALID,0,VALID,25.3584,VALID,352,VALID,0.965234,
2009-05-18, 02:52:04,VALID,1002.61,VALID,0,VALID,88.1288,VALID,0,VALID,25.3993,VALID,317,VALID,0.290625,
2009-05-18, 02:53:04,VALID,1002.59,VALID,0,VALID,88.0831,VALID,0,VALID,25.3779,VALID,359,VALID,0.532422,
2009-05-18, 02:54:04,VALID,1002.58,VALID,0,VALID,88.0907,VALID,0,VALID,25.3584,VALID,342,VALID,0.680078,
2009-05-18, 02:55:04,VALID,1002.58,VALID,0,VALID,88.0068,VALID,0,VALID,25.3779,VALID,354,VALID,0.530078,
2009-05-18, 02:56:04,VALID,1002.55,VALID,0,VALID,87.9457,VALID,0,VALID,25.3779,VALID,3,VALID,0.646484,
2009-05-18, 02:57:04,VALID,1002.53,VALID,0,VALID,87.8847,VALID,0,VALID,25.3974,VALID,343,VALID,0.917969,
2009-05-18, 02:58:04,VALID,1002.53,VALID,0,VALID,87.7703,VALID,0,VALID,25.4169,VALID,347,VALID,1.09219,
2009-05-18, 02:59:04,VALID,1002.52,VALID,0,VALID,87.6863,VALID,0,VALID,25.4169,VALID,358,VALID,0.655469,
2009-05-18, 03:00:04,VALID,1002.48,VALID,0,VALID,87.6101,VALID,0,VALID,25.4169,VALID,347,VALID,0.517578,
2009-05-18, 03:01:04,VALID,1002.52,VALID,0,VALID,87.5795,VALID,0,VALID,25.3955,VALID,12,VALID,0.714063,
2009-05-18, 03:02:04,VALID,1002.51,VALID,0,VALID,87.6329,VALID,0,VALID,25.376,VALID,347,VALID,0.956641,
2009-05-18, 03:03:04,VALID,1002.5,VALID,0,VALID,87.6482,VALID,0,VALID,25.3955,VALID,323,VALID,0.184375,
2009-05-18, 03:04:04,VALID,1002.49,VALID,0,VALID,87.6787,VALID,0,VALID,25.3974,VALID,301,VALID,0.447656,
2009-05-18, 03:05:04,VALID,1002.45,VALID,0,VALID,87.7245,VALID,0,VALID,25.3779,VALID,343,VALID,0.370703,
2009-05-18, 03:06:04,VALID,1002.43,VALID,0,VALID,87.8389,VALID,0,VALID,25.3584,VALID,343,VALID,0.195313,
2009-05-18, 03:07:04,VALID,1002.41,VALID,0,VALID,87.9381,VALID,0,VALID,25.3584,VALID,343,VALID,0.138672,
2009-05-18, 03:08:04,VALID,1002.39,VALID,0,VALID,88.0144,VALID,0,VALID,25.3,VALID,343,VALID,0.0539063,
2009-05-18, 03:09:04,VALID,1002.37,VALID,0,VALID,88.1899,VALID,0,VALID,25.2806,VALID,336,VALID,0.223828,
2009-05-18, 03:10:04,VALID,1002.36,VALID,0,VALID,88.3195,VALID,0,VALID,25.2397,VALID,341,VALID,0.533984,
2009-05-18, 03:11:04,VALID,1002.32,VALID,0,VALID,88.4569,VALID,0,VALID,25.2202,VALID,349,VALID,0.824609,
2009-05-18, 03:12:04,VALID,1002.3,VALID,0,VALID,88.5408,VALID,0,VALID,25.2416,VALID,354,VALID,0.865234,
2009-05-18, 03:13:04,VALID,1002.26,VALID,0,VALID,88.5942,VALID,0,VALID,25.2221,VALID,341,VALID,0.708984,
2009-05-18, 03:14:04,VALID,1002.25,VALID,0,VALID,88.7239,VALID,0,VALID,25.1423,VALID,355,VALID,0.746484,
2009-05-18, 03:15:04,VALID,1002.29,VALID,0,VALID,88.8765,VALID,0,VALID,25.1461,VALID,352,VALID,0.7625,
2009-05-18, 03:16:04,VALID,1002.27,VALID,0,VALID,89.0519,VALID,0,VALID,25.0858,VALID,360,VALID,0.612891,
2009-05-18, 03:17:04,VALID,1002.28,VALID,0,VALID,89.1969,VALID,0,VALID,25.0663,VALID,327,VALID,0.4,
2009-05-18, 03:18:04,VALID,1002.3,VALID,0,VALID,89.3342,VALID,0,VALID,25.0469,VALID,327,VALID,0.252734,
2009-05-18, 03:19:04,VALID,1002.29,VALID,0,VALID,89.4028,VALID,0,VALID,25.0469,VALID,343,VALID,0.618359,
2009-05-18, 03:20:04,VALID,1002.28,VALID,0,VALID,89.502,VALID,0,VALID,25.0469,VALID,343,VALID,0.750391,
2009-05-18, 03:21:04,VALID,1002.29,VALID,0,VALID,89.5097,VALID,0,VALID,25.0274,VALID,342,VALID,0.0722656,
2009-05-18, 03:22:04,VALID,1002.26,VALID,0,VALID,89.647,VALID,0,VALID,25.0079,VALID,345,VALID,0.174609,
2009-05-18, 03:23:04,VALID,1002.29,VALID,0,VALID,89.6775,VALID,0,VALID,25.0079,VALID,344,VALID,0.126172,
2009-05-18, 03:24:04,VALID,1002.28,VALID,0,VALID,89.7919,VALID,0,VALID,25.0079,VALID,344,VALID,0.249219,
2009-05-18, 03:25:04,VALID,1002.32,VALID,0,VALID,89.8377,VALID,0,VALID,25.0079,VALID,327,VALID,0.375,
2009-05-18, 03:26:04,VALID,1002.29,VALID,0,VALID,89.8682,VALID,0,VALID,25.0293,VALID,329,VALID,0.141406,
2009-05-18, 03:27:04,VALID,1002.32,VALID,0,VALID,89.914,VALID,0,VALID,25.0079,VALID,316,VALID,0.451953,
2009-05-18, 03:28:04,VALID,1002.34,VALID,0,VALID,89.7614,VALID,0,VALID,25.006,VALID,335,VALID,0.0148437,
2009-05-18, 03:29:04,VALID,1002.35,VALID,0,VALID,89.769,VALID,0,VALID,25.0079,VALID,335,VALID,0.0734375,
2009-05-18, 03:30:04,VALID,1002.37,VALID,0,VALID,89.8148,VALID,0,VALID,25.0079,VALID,335,VALID,0.314063,
2009-05-18, 03:31:04,VALID,1002.39,VALID,0,VALID,89.8606,VALID,0,VALID,25.0079,VALID,335,VALID,0.395703,
2009-05-18, 03:32:04,VALID,1002.42,VALID,0,VALID,89.853,VALID,0,VALID,24.9885,VALID,335,VALID,0.355859,
2009-05-18, 03:33:04,VALID,1002.43,VALID,0,VALID,89.8453,VALID,0,VALID,24.9885,VALID,335,VALID,0.46875,
2009-05-18, 03:34:04,VALID,1002.41,VALID,0,VALID,89.9216,VALID,0,VALID,24.969,VALID,335,VALID,0.36875,
2009-05-18, 03:35:04,VALID,1002.4,VALID,0,VALID,89.9521,VALID,0,VALID,24.9495,VALID,341,VALID,0.488281,
2009-05-18, 03:36:04,VALID,1002.4,VALID,0,VALID,90.0055,VALID,0,VALID,24.93,VALID,341,VALID,0.507813,
2009-05-18, 03:37:04,VALID,1002.39,VALID,0,VALID,90.1047,VALID,0,VALID,24.93,VALID,345,VALID,0.442969,
2009-05-18, 03:38:04,VALID,1002.38,VALID,0,VALID,90.1276,VALID,0,VALID,24.9709,VALID,345,VALID,0.495703,
2009-05-18, 03:39:04,VALID,1002.37,VALID,0,VALID,90.1276,VALID,0,VALID,24.969,VALID,349,VALID,0.529297,
2009-05-18, 03:40:04,VALID,1002.37,VALID,0,VALID,90.0666,VALID,0,VALID,24.969,VALID,345,VALID,0.693359,
2009-05-18, 03:41:04,VALID,1002.36,VALID,0,VALID,90.036,VALID,0,VALID,24.969,VALID,351,VALID,0.591406,
2009-05-18, 03:42:04,VALID,1002.34,VALID,0,VALID,89.9598,VALID,0,VALID,24.969,VALID,344,VALID,0.554297,
2009-05-18, 03:43:04,VALID,1002.31,VALID,0,VALID,89.9064,VALID,0,VALID,24.9885,VALID,343,VALID,0.920703,
2009-05-18, 03:44:04,VALID,1002.29,VALID,0,VALID,89.9064,VALID,0,VALID,24.9495,VALID,344,VALID,0.799219,